OpenBCM V2.0.2 (Linux)

Packet Radio Mailbox

IZ3LSV

[San Dona' di P. JN]

 Login: GUEST





  
LU9DCE > KEPS     24.03.18 18:13l 260 Lines 12906 Bytes #999 (0) @ WW
BID : 35058_LU9DCE
Read: GUEST
Subj: SAT TLE OF 24
Path: IZ3LSV<IR2UBX<EA2RCF<LU9DCE
Sent: 180324/1601Z @:LU9DCE.TOR.BA.ARG.SOAM #:35058 [TORTUGUITAS] FBB7.07
From: LU9DCE@LU9DCE.TOR.BA.ARG.SOAM
To  : KEPS@WW


            __    _  _  ___  ____   ___  ____    ____  ____  ____
           (  )  / )( \/ _ \(    \ / __)(  __)  (  _ \(  _ \/ ___)
           / (_/\) \/ (\__  )) D (( (__  ) _)    ) _ ( ) _ (\___ \
           \____/\____/(___/(____/ \___)(____)  (____/(____/(____/
               ESTACION DE PACKET RADIO - BUENOS AIRES (GF05OM)
                   BOLETINES INFORMATIVOS PROGRAMADOS (BIP)
                    LU9DCE@GMX.COM - RF 147070 @ 1200 BAUD
                           telnet lu9dce.dynu.com
             BBS port 6300 / NODE port 3694 / DXCLUSTER port 9000

+------------------------------------------------------------------------------+
OSCAR 7
1 07530U 74089B   18083.18678427 -.00000014  00000-0  18848-3 0  9994
2 07530 101.6772  51.8157 0012294 138.3769 292.3702 12.53631697983944
OSCAR 11 (UoSAT 2)
1 14781U 84021B   18082.91775211 +.00000063 +00000-0 +13939-4 0  9996
2 14781 097.6603 122.7213 0008646 013.2223 346.9217 14.82989232810806
OSCAR 19 (LUSAT)
1 20442U 90005G   18082.88180679 +.00000011 +00000-0 +20061-4 0  9997
2 20442 098.6034 021.9305 0012634 045.9444 314.2778 14.32889943471612
KITSAT B
1 22825U 93061C   18082.85936315 +.00000015 +00000-0 +23746-4 0  9999
2 22825 098.8539 057.4694 0007515 231.2884 128.7626 14.30024934277103
POSAT 1
1 22826U 93061D   18082.89592835  .00000020  00000-0  25265-4 0  9993
2 22826  98.8480  57.5551 0008162 220.2177 139.8401 14.30355992277569
RADIO ROSTO
1 23439U 94085A   18082.91658028 -.00000052 +00000-0 -26429-3 0  9990
2 23439 064.8148 126.7422 0160155 197.4485 213.6440 11.27566732956958
JAS 2
1 24278U 96046B   18083.19284852 -.00000021  00000-0  16874-4 0  9991
2 24278  98.5254 293.6210 0349917 331.6030  26.6424 13.53082427 66742
TECHSAT 1B
1 25397U 98043D   18082.91995839 +.00000003 +00000-0 +20197-4 0  9998
2 25397 098.6425 024.8044 0000145 274.0371 086.0791 14.23641975023376
ISS (ZARYA)
1 25544U 98067A   18083.53068671  .00024034  00000-0  36911-3 0  9992
2 25544  51.6428  80.7470 0001652 242.3812 200.7994 15.54134562105351
PCSAT
1 26931U 01043C   18083.19682187 -.00000033  00000-0  18989-4 0  9997
2 26931  67.0499  88.7099 0006660 282.8949  77.1408 14.30498087860396
SAUDISAT 1C
1 27607U 02058C   18082.94524602 +.00000037 +00000-0 +26050-4 0  9995
2 27607 064.5570 350.5861 0055329 348.2540 011.7267 14.75431705820257
CUTE-1
1 27844U 03031E   18082.89569421 +.00000056 +00000-0 +45004-4 0  9993
2 27844 098.6893 092.8015 0008666 256.6274 103.3938 14.22101235764031
CUBESAT XI 4
1 27848U 03031J   18082.97207946  .00000041  00000-0  38451-4 0  9999
2 27848  98.6981  93.2456 0008526 268.0028  92.0173 14.21706793763950
MOZHAYETS 4
1 27939U 03042A   18083.51492082  .00000151  00000-0  35596-4 0  9999
2 27939  97.9758 224.9043 0014098  60.6964  14.5957 14.66668318774406
CUBESAT XI 5
1 28895U 05043F   18082.95231612 +.00000168 +00000-0 +41077-4 0  9990
2 28895 097.8959 237.9200 0016281 343.4473 016.6196 14.63521869661175
CUTE-1.7+APD II
1 32785U 08021C   18083.52570048  .00000265  00000-0  34426-4 0  9993
2 32785  97.5517  99.7288 0012117 324.9554  35.0865 14.88082156536585
DELFI C3
1 32789U 08021G   18083.39558239  .00001176  00000-0  85125-4 0  9994
2 32789  97.5220 140.3221 0011503 220.9548 139.0816 15.05845651539026
SEEDS
1 32791U 08021J   18083.55055912  .00000417  00000-0  48138-4 0  9995
2 32791  97.5425 104.9138 0012048 304.0554  55.9520 14.90496345536902
YUBELEINY
1 32953U 08025A   18083.36974463  .00000023  00000-0  97178-4 0  9990
2 32953  82.5008  65.4215 0020024  37.7063 322.5416 12.43082361446236
PRISM (HITOMI)
1 33493U 09002B   18083.43364556  .00000056  00000-0  10641-4 0  9996
2 33493  98.1385 342.2386 0013769 236.3081 123.6782 14.96119290497679
KKS-1 (KISEKI)
1 33499U 09002H   18083.53649921  .00000117  00000-0  25423-4 0  9997
2 33499  98.3525 262.5664 0008855 194.6557 165.4395 14.75306385492691
SWISSCUBE
1 35932U 09051B   18082.88703715 +.00000164 +00000-0 +48166-4 0  9995
2 35932 098.5314 232.0589 0008859 110.5319 249.6829 14.56133767450982
BEESAT
1 35933U 09051C   18082.92040940  .00000149  00000-0  44568-4 0  9990
2 35933  98.5357 233.5858 0006937 120.7671 239.4210 14.56240737451139
ITUPSAT 1
1 35935U 09051E   18083.20208342  .00000135  00000-0  42090-4 0  9999
2 35935  98.5469 234.1280 0009305 116.6222 243.5928 14.55420885450964
XIWANG-1 (HOPE-1)
1 36122U 09072B   18083.19091390 -.00000061  00000-0 -49148-4 0  9993
2 36122 100.0816 101.7832 0006940 312.4452  47.6074 13.16343849397463
TISAT 1
1 36799U 10035E   18083.41022390  .00000483  00000-0  55189-4 0  9991
2 36799  98.0922 217.4521 0013592 124.1161 236.1348 14.90731020417527
JUGNU
1 37839U 11058B   18083.43793937  .00000339  00000-0  38841-4 0  9993
2 37839  19.9605 191.1500 0019120  32.6618  33.3579 14.12613493333371
SRMSAT
1 37841U 11058D   18083.47062325  .00000319  00000-0  30175-4 0  9990
2 37841  19.9715 238.4096 0011849 280.6472 113.3192 14.10601500332906
M-CUBED/EXP-1 PRIME
1 37855U 11061F   18082.93932930 +.00001851 +00000-0 +10239-3 0  9997
2 37855 101.7248 101.8468 0177226 334.5004 024.7541 15.04197800348367
HORYU 2
1 38340U 12025D   18082.63070419  .00000222  00000-0  40677-4 0  9991
2 38340  98.3726 101.3888 0012762 120.5253 239.7216 14.75516534314492
STRAND 1
1 39090U 13009E   18083.53301685  .00000042  00000-0  30071-4 0  9996
2 39090  98.5302 290.9783 0009082 181.7162 178.3994 14.35016305265689
SOMP
1 39134U 13015E   18083.20727562  .00001820  00000-0  95875-4 0  9990
2 39134  64.8645  41.7537 0021197 220.8953 139.0584 15.18927353271993
BEESAT 3
1 39135U 13015F   18083.28883368  .00001708  00000-0  96672-4 0  9997
2 39135  64.8694  53.7542 0026373 246.5783 113.2569 15.16487282271777
BEESAT 2
1 39136U 13015G   18083.42684281  .00001616  00000-0  93327-4 0  9999
2 39136  64.8695  55.8687 0026934 245.9062 113.9245 15.15963863271746
CUBEBUG 1
1 39153U 13018D   18083.21128955  .00000276  00000-0  43134-4 0  9991
2 39153  97.9768 178.9698 0016191 217.6468 142.3612 14.80359025265019
ZACUBE
1 39417U 13066B   18082.63965085 +.00000277 +00000-0 +41178-4 0  9992
2 39417 097.5968 115.8054 0060638 075.8931 284.9011 14.80895183234135
TRITON 1
1 39427U 13066M   18083.55592551  .00000186  00000-0  37581-4 0  9991
2 39427  97.6396  85.1041 0114393 169.7934 190.5634 14.67625583232165
GOMX 1
1 39430U 13066Q   18083.47202906  .00000196  00000-0  44934-4 0  9999
2 39430  97.6904  66.4872 0150335 237.7051 120.9513 14.59042245230799
HUMSAT D
1 39433U 13066T   18083.12496798  .00000468  00000-0  51470-4 0  9993
2 39433  97.6143 142.4384 0031035   8.7741 351.4014 14.91783816235746
50 SAT
1 39436U 13066W   18083.30178651  .00177244  00000-0  16564-2 0  9991
2 39436  97.7117 212.9839 0003139 197.9416 162.1733 15.66714068239995
CUBEBUG 2
1 39440U 13066AA  18083.10963290  .00000246  00000-0  41034-4 0  9994
2 39440  97.6072 103.3776 0082037 111.5071 249.4911 14.75629948233379
FUNCUBE 1
1 39444U 13066AE  18083.15295257  .00000326  00000-0  46615-4 0  9993
2 39444  97.5978 117.7090 0059711  70.1012 290.6622 14.81663671233064
UWE-3
1 39446U 13066AG  18082.87190452  .00000271  00000-0  42632-4 0  9998
2 39446  97.6006 109.2198 0071832  94.0334 266.9093 14.78163609232513
SPROUT
1 39770U 14029E   18083.52657075  .00001066  00000-0  12582-3 0  9993
2 39770  97.8716 185.3105 0010564 122.3324 237.8924 14.86733767207783
UNISAT 6
1 40012U 14033C   18083.55199284  .00000233  00000-0  42184-4 0  9992
2 40012  97.8209 322.9005 0059817 111.3656 249.3950 14.73780985202231
DUCHIFAT 1
1 40021U 14033M   18083.32418195  .00000625  00000-0  70248-4 0  9999
2 40021  97.9171   1.8904 0014420  97.0524 263.2334 14.90233104204313
QB50P1
1 40025U 14033R   18082.78529410  .00000368  00000-0  45413-4 0  9995
2 40025  97.9077 358.3508 0013892 104.1486 256.1275 14.88660467204083
CHUBUSAT 1
1 40300U 14070C   18083.51982373  .00000932  00000-0  44386-4 0  9990
2 40300  97.3683 163.0102 0019442 194.9154 279.9740 15.21443581187403
NUDT-PHONESAT
1 40900U 15049B   18082.98603614  .00002546  00000-0  11793-3 0  9999
2 40900  97.4438  92.2353 0012649 334.7154  25.3461 15.20949507138963
ZDPS 2A
1 40901U 15049C   18083.51579019  .00001273  00000-0  67871-4 0  9996
2 40901  97.4604  91.1891 0013070 338.9696  21.0998 15.16931179138824
ZDPS 2B
1 40902U 15049D   18083.08230046  .00001036  00000-0  56143-4 0  9990
2 40902  97.4497  88.9263 0013107 337.5267  22.5390 15.16730581138749
XW-2A
1 40903U 15049E   18083.52975315  .00002604  00000-0  66903-4 0  9992
2 40903  97.3946 117.5142 0013604 342.8260  17.2524 15.40156907140774
KAITUO 1A
1 40904U 15049F   18083.48327441  .00000951  00000-0  54493-4 0  9993
2 40904  97.4591  88.6537 0014495 338.8806 191.5931 15.14931182138679
OBJECT G
1 40905U 15049G   18083.54801487  .00000567  00000-0  34884-4 0  9993
2 40905  97.4587  86.9342 0014939 329.0966  30.9385 15.13895219138614
XW-2C
1 40906U 15049H   18083.51963824  .00000887  00000-0  50854-4 0  9995
2 40906  97.4605  88.5693 0014156 329.1714  30.8685 15.15072821138672
XW-2D
1 40907U 15049J   18083.54632747  .00000930  00000-0  52921-4 0  9992
2 40907  97.4578  88.3030 0013479 327.1455  32.8938 15.15214871138689
LILACSAT 2
1 40908U 15049K   18083.05539505  .00000430  00000-0  27668-4 0  9992
2 40908  97.4688  87.2882 0015173 329.1058  30.9279 15.13439928138495
XW-2F
1 40910U 15049M   18083.49392711  .00001474  00000-0  79277-4 0  9991
2 40910  97.4584  89.4141 0014087 322.9597  37.0663 15.16349540138620
XW-2B
1 40911U 15049N   18083.49474601  .00000914  00000-0  52168-4 0  9999
2 40911  97.4615  88.7575 0013393 327.8957  32.1458 15.15162111138570
